Location: Bayshore Village Mobile Home Park
(26.6945°N, 81.8642°W)
Time: 23:15:07
(UTC+00:00)

Cosmos 1656 - Pass Details

Date: 17 June 2021
Orbit: 797 x 850 km, 71.1° (Epoch: 05 August)

Event Time Altitude Azimuth Distance (km) Brightness Sun altitude
Rises 09:49:21 0° 342° (NNW) 3,414 7.1 -9.5°
Reaches altitude 10° 09:51:49 10° 344° (NNW) 2,476 6.3 -9.0°
Maximum altitude 09:57:31 81° 72° (ENE) 859 3.9 -8.0°
Drops below altitude 10° 10:03:09 10° 159° (SSE) 2,448 6.0 -6.9°
Sets 10:05:35 0° 160° (SSE) 3,374 6.7 -6.4°
